Location: Babice
(50.3480°N, 22.9363°E)
Time: 12:14:56
(UTC+00:00)

Cosmos 2016 Rocket - Pass Details

Date: 14 July 2020
Orbit: 948 x 999 km, 83.0° (Epoch: 07 August)

Event Time Altitude Azimuth Distance (km) Brightness Sun altitude
Exits shadow 00:09:03 18° 177° (S) 2,155 5.3 -15.0°
Maximum altitude 00:13:43 73° 95° (E) 1,011 4.1 -14.7°
Drops below altitude 10° 00:19:57 10° 13° (NNE) 2,734 7.7 -14.3°
Sets 00:22:29 0° 11° (NNE) 3,694 8.7 -14.1°
